TimeCDT,TemperatureF,Dew PointF,Humidity,Sea Level PressureIn,VisibilityMPH,Wind Direction,Wind SpeedMPH,Gust SpeedMPH,PrecipitationIn,Events,Conditions,WindDirDegrees,DateUTC
12:15 AM,75.0,70.3,85,29.86,10.0,South,8.1,-,N/A,,Light Drizzle,180,2013-09-20 05:15:00
12:35 AM,74.8,70.2,85,29.85,10.0,South,9.2,-,N/A,,Clear,190,2013-09-20 05:35:00
12:55 AM,74.8,70.2,85,29.84,10.0,South,9.2,-,N/A,Thunderstorm,Mostly Cloudy,190,2013-09-20 05:55:00
1:15 AM,76.5,70.0,80,29.86,10.0,West,16.1,20.7,N/A,Thunderstorm,Thunderstorm,270,2013-09-20 06:15:00
1:35 AM,68.0,65.5,92,29.89,7.0,WNW,10.4,16.1,0.10,Rain-Thunderstorm,Thunderstorms and Rain,290,2013-09-20 06:35:00
1:55 AM,67.5,65.5,93,29.89,10.0,West,4.6,-,0.11,,Overcast,270,2013-09-20 06:55:00
2:15 AM,67.1,65.3,94,29.86,10.0,Calm,Calm,-,N/A,,Mostly Cloudy,0,2013-09-20 07:15:00
2:35 AM,67.1,65.7,95,29.85,10.0,SSE,5.8,-,N/A,Rain,Light Rain,150,2013-09-20 07:35:00
2:55 AM,67.3,65.8,95,29.84,10.0,SE,6.9,-,0.01,Rain,Light Rain,140,2013-09-20 07:55:00
3:15 AM,67.1,65.8,96,29.82,10.0,SE,10.4,-,N/A,,Mostly Cloudy,140,2013-09-20 08:15:00
3:35 AM,67.1,65.8,96,29.82,10.0,SSE,4.6,-,N/A,,Scattered Clouds,150,2013-09-20 08:35:00
3:55 AM,67.1,65.7,95,29.82,10.0,South,6.9,-,N/A,,Clear,170,2013-09-20 08:55:00
4:15 AM,67.3,65.8,95,29.82,10.0,South,9.2,-,N/A,,Clear,170,2013-09-20 09:15:00
4:35 AM,67.5,66.2,96,29.85,10.0,West,9.2,-,N/A,,Scattered Clouds,270,2013-09-20 09:35:00
4:55 AM,67.1,65.8,96,29.84,10.0,WSW,6.9,-,N/A,,Scattered Clouds,240,2013-09-20 09:55:00
5:15 AM,67.1,66.0,96,29.85,10.0,WSW,5.8,-,N/A,,Mostly Cloudy,250,2013-09-20 10:15:00
5:35 AM,67.5,66.4,96,29.86,10.0,WSW,8.1,-,N/A,,Overcast,240,2013-09-20 10:35:00
5:55 AM,67.5,66.4,96,29.86,10.0,SW,11.5,-,N/A,,Overcast,230,2013-09-20 10:55:00
6:15 AM,67.6,66.4,96,29.87,10.0,WSW,9.2,16.1,N/A,,Overcast,240,2013-09-20 11:15:00
6:35 AM,67.5,66.2,96,29.87,10.0,SW,9.2,-,N/A,,Overcast,230,2013-09-20 11:35:00
6:55 AM,67.5,66.2,96,29.88,10.0,WSW,6.9,-,N/A,,Scattered Clouds,240,2013-09-20 11:55:00
7:15 AM,67.5,66.2,96,29.88,7.0,SW,5.8,-,N/A,,Scattered Clouds,230,2013-09-20 12:15:00
7:35 AM,67.5,66.2,96,29.87,7.0,SW,6.9,-,N/A,Rain,Rain,230,2013-09-20 12:35:00
7:55 AM,67.5,66.2,96,29.87,7.0,SW,5.8,-,N/A,Rain,Light Rain,230,2013-09-20 12:55:00
8:15 AM,67.8,66.4,95,29.87,10.0,WSW,6.9,-,N/A,Rain,Light Rain,240,2013-09-20 13:15:00
8:35 AM,68.4,66.9,95,29.86,10.0,WSW,5.8,-,0.01,Rain,Light Rain,240,2013-09-20 13:35:00
8:55 AM,69.3,67.3,93,29.86,10.0,SW,6.9,-,0.01,,Clear,230,2013-09-20 13:55:00
9:15 AM,70.2,67.8,92,29.86,10.0,WSW,8.1,-,N/A,,Scattered Clouds,250,2013-09-20 14:15:00
9:35 AM,70.2,67.1,90,29.88,10.0,SW,10.4,-,N/A,,Overcast,230,2013-09-20 14:35:00
9:55 AM,70.2,67.1,90,29.88,10.0,SW,10.4,-,N/A,,Overcast,230,2013-09-20 14:55:00
10:15 AM,69.6,66.6,90,29.88,10.0,WSW,8.1,-,N/A,,Overcast,240,2013-09-20 15:15:00
10:35 AM,68.9,66.7,93,29.87,3.0,WSW,8.1,-,N/A,Rain,Light Rain,240,2013-09-20 15:35:00
10:55 AM,70.9,67.8,90,29.87,10.0,SW,6.9,-,N/A,,Overcast,230,2013-09-20 15:55:00
11:15 AM,71.8,67.6,87,29.87,10.0,SW,9.2,-,N/A,,Overcast,230,2013-09-20 16:15:00
11:35 AM,72.5,67.1,83,29.87,10.0,WSW,11.5,-,N/A,,Overcast,240,2013-09-20 16:35:00
11:55 AM,72.5,66.6,82,29.86,10.0,WSW,9.2,-,N/A,,Overcast,240,2013-09-20 16:55:00
12:15 PM,72.3,66.6,82,29.86,10.0,West,8.1,-,N/A,,Overcast,260,2013-09-20 17:15:00
12:35 PM,70.0,67.1,91,29.85,10.0,SW,6.9,-,N/A,,Overcast,230,2013-09-20 17:35:00
12:55 PM,72.1,68.0,87,29.85,10.0,SW,8.1,-,N/A,,Overcast,230,2013-09-20 17:55:00
1:15 PM,73.4,68.4,84,29.84,10.0,WSW,10.4,-,N/A,,Overcast,240,2013-09-20 18:15:00
1:35 PM,74.5,66.6,76,29.83,10.0,WSW,10.4,-,N/A,,Mostly Cloudy,240,2013-09-20 18:35:00
1:55 PM,74.7,64.0,69,29.82,10.0,West,12.7,16.1,N/A,,Mostly Cloudy,260,2013-09-20 18:55:00
2:15 PM,74.7,64.2,70,29.82,10.0,WSW,9.2,-,N/A,,Overcast,240,2013-09-20 19:15:00
2:35 PM,74.3,63.3,68,29.82,10.0,West,11.5,-,N/A,,Overcast,260,2013-09-20 19:35:00
2:55 PM,74.3,63.7,69,29.82,10.0,West,10.4,-,N/A,,Mostly Cloudy,260,2013-09-20 19:55:00
3:15 PM,73.9,62.8,68,29.82,10.0,WSW,11.5,-,N/A,,Mostly Cloudy,250,2013-09-20 20:15:00
3:35 PM,73.6,61.9,67,29.82,10.0,West,8.1,-,N/A,,Mostly Cloudy,270,2013-09-20 20:35:00
3:55 PM,73.4,61.7,67,29.82,10.0,West,8.1,-,N/A,,Mostly Cloudy,260,2013-09-20 20:55:00
4:15 PM,72.7,61.2,67,29.82,10.0,West,8.1,-,N/A,,Scattered Clouds,260,2013-09-20 21:15:00
4:35 PM,72.5,60.1,65,29.81,10.0,West,8.1,-,N/A,,Scattered Clouds,260,2013-09-20 21:35:00
4:55 PM,72.7,61.0,67,29.81,10.0,West,6.9,-,N/A,,Clear,260,2013-09-20 21:55:00
5:15 PM,72.7,62.1,69,29.81,10.0,West,9.2,-,N/A,,Mostly Cloudy,260,2013-09-20 22:15:00
5:35 PM,72.5,57.9,60,29.81,10.0,West,12.7,-,N/A,,Scattered Clouds,280,2013-09-20 22:35:00
5:55 PM,70.7,58.1,64,29.82,10.0,West,11.5,17.3,N/A,,Clear,280,2013-09-20 22:55:00
6:15 PM,69.3,57.6,66,29.82,10.0,West,9.2,-,N/A,,Clear,280,2013-09-20 23:15:00
6:35 PM,68.4,58.1,70,29.82,10.0,WNW,12.7,-,N/A,,Scattered Clouds,290,2013-09-20 23:35:00
6:55 PM,67.3,55.4,66,29.83,10.0,West,10.4,16.1,N/A,,Scattered Clouds,280,2013-09-20 23:55:00
7:15 PM,65.7,54.7,68,29.83,10.0,West,5.8,-,N/A,,Clear,280,2013-09-21 00:15:00
7:35 PM,64.6,54.9,71,29.84,10.0,West,6.9,-,N/A,,Clear,280,2013-09-21 00:35:00
7:55 PM,64.8,54.5,69,29.84,10.0,WNW,10.4,19.6,N/A,,Clear,300,2013-09-21 00:55:00
8:15 PM,63.9,52.0,65,29.85,10.0,WNW,10.4,16.1,N/A,,Clear,290,2013-09-21 01:15:00
8:35 PM,63.0,51.3,66,29.85,10.0,WNW,8.1,-,N/A,,Clear,290,2013-09-21 01:35:00
8:55 PM,62.2,50.9,66,29.86,10.0,WNW,6.9,-,N/A,,Clear,290,2013-09-21 01:55:00
9:15 PM,61.3,50.9,69,29.86,10.0,WNW,6.9,-,N/A,,Clear,290,2013-09-21 02:15:00
9:35 PM,61.0,51.1,70,29.86,10.0,WNW,5.8,-,N/A,,Clear,290,2013-09-21 02:35:00
9:55 PM,59.7,51.8,75,29.86,10.0,West,4.6,-,N/A,,Clear,270,2013-09-21 02:55:00
10:15 PM,58.6,52.2,79,29.87,10.0,West,3.5,-,N/A,,Clear,270,2013-09-21 03:15:00
10:35 PM,57.9,52.7,83,29.87,10.0,West,4.6,-,N/A,,Clear,280,2013-09-21 03:35:00
10:55 PM,57.2,52.3,84,29.87,10.0,West,4.6,-,N/A,,Clear,270,2013-09-21 03:55:00
11:15 PM,56.5,52.2,85,29.87,10.0,West,3.5,-,N/A,,Clear,270,2013-09-21 04:15:00
11:35 PM,55.8,52.0,87,29.87,10.0,West,3.5,-,N/A,,Clear,260,2013-09-21 04:35:00
11:55 PM,54.9,51.8,89,29.86,10.0,WSW,3.5,-,N/A,,Clear,250,2013-09-21 04:55:00